Weather History for Belize, Belize

Change the Weather History Date:

Sunday, June 23, 2013

  Actual Average Record
Temperature  
Mean Temperature 84 °F -  
Max Temperature 88 °F 88 °F 102 °F (2001)
Min Temperature 80 °F 76 °F 75 °F (2000)
Cooling Degree Days 19    
Growing Degree Days 34 (Base 50)    
Moisture  
Dew Point 76 °F    
Average Humidity 74    
Maximum Humidity 84    
Minimum Humidity 58    
Precipitation  
Precipitation 0.00 in 0.32 in - ()
Sea Level Pressure  
Sea Level Pressure 29.95 in    
Wind  
Wind Speed 10 mph ()    
Max Wind Speed 15 mph    
Max Gust Speed -    
Visibility 8.0 miles    
Events Thunderstorm    
Averages and records for this station are not official NWS values.
T = Trace of Precipitation, MM = Missing Value Source: Averaged Metar Reports

Daily Weather History Graph

Daily Weather History Graph

Search for Another Location

Airport:

Trip Planner

Search our weather history database for the weather conditions in past years. The results will help you decide how hot, cold, wet, or windy it might be!

Date:

Astronomy

Jun. 23, 2013 Rise Set
Actual Time 5:20 AM CST 6:30 PM CST
Civil Twilight 4:56 AM CST 6:55 PM CST
Nautical Twilight 4:27 AM CST 7:23 PM CST
Astronomical Twilight 3:58 AM CST 7:52 PM CST
Moon 6:54 PM CST (6/23) 5:28 AM CST (6/23)
Length of Visible Light 13h 58m
Length of Day
13h 10m
Full, 100% of the Moon is Illuminated
Jun 23
Full
Jun 29
Last Quarter
Jul 8
New
Jul 15
First Quarter
Jul 22
Full

Hourly Weather History & Observations

Time (CST) Temp. Heat Index Dew Point Humidity Pressure Visibility Wind Dir Wind Speed Gust Speed Precip Events Conditions
12:00 AM 82 °F - 76 °F 77% 29.96 in 12 mi East 15.0 mph - -   Partly Cloudy
3:00 AM 81 °F - 75 °F 78% 29.91 in 12 mi East 15.0 mph - -   Scattered Clouds
5:00 AM 80.6 °F 86.2 °F 75.2 °F 84% 29.92 in 6.2 mi East 9.2 mph - N/A   Partly Cloudy
6:00 AM 81 °F - 74 °F 75% 29.94 in 12 mi East 6.9 mph - -   Scattered Clouds
6:00 AM 80.6 °F 86.2 °F 75.2 °F 84% 29.92 in 6.2 mi East 6.9 mph - N/A   Partly Cloudy
7:00 AM 82.4 °F 89.5 °F 75.2 °F 79% 29.95 in 6.2 mi East 11.5 mph - N/A   Partly Cloudy
8:00 AM 84.2 °F 92.3 °F 75.2 °F 74% 29.95 in 6.2 mi ESE 11.5 mph - N/A   Scattered Clouds
9:00 AM 86 °F - 75 °F 63% 29.98 in 12 mi ESE 8.1 mph - -   Partly Cloudy
9:00 AM 86.0 °F 95.1 °F 75.2 °F 70% 29.98 in 6.2 mi ESE 8.1 mph - N/A   Scattered Clouds
10:00 AM 86.0 °F 95.1 °F 75.2 °F 70% 29.98 in 6.2 mi ESE 6.9 mph - N/A   Scattered Clouds
11:00 AM 86.0 °F 95.1 °F 75.2 °F 70% 29.98 in 6.2 mi East 11.5 mph - N/A   Scattered Clouds
12:00 PM 88 °F - 75 °F 58% 29.97 in 12 mi East 10.4 mph - -   Mostly Cloudy
12:00 PM 87.8 °F 97.6 °F 75.2 °F 66% 29.97 in 6.2 mi East 10.4 mph - N/A   Scattered Clouds
1:00 PM 87.8 °F 99.7 °F 77.0 °F 70% 29.96 in 6.2 mi East 10.4 mph - N/A   Scattered Clouds
2:00 PM 86.0 °F 96.9 °F 77.0 °F 74% 29.95 in 6.2 mi East 10.4 mph - N/A   Scattered Clouds
2:12 PM 84.2 °F 94.1 °F 77.0 °F 79% 29.93 in 6.2 mi North - - N/A   Scattered Clouds
2:35 PM 86.0 °F 96.9 °F 77.0 °F 74% 29.94 in 5.0 mi East 11.5 mph - N/A Thunderstorm Thunderstorm
3:00 PM 84 °F - 78 °F 76% 29.94 in 11 mi East 10.4 mph - - Thunderstorm Thunderstorm
3:00 PM 84.2 °F 94.1 °F 77.0 °F 79% 29.94 in 6.2 mi East 10.4 mph - N/A Thunderstorm Thunderstorm
4:00 PM 86.0 °F 96.9 °F 77.0 °F 74% 29.92 in 6.2 mi East 12.7 mph - N/A   Scattered Clouds
5:00 PM 86.0 °F 96.9 °F 77.0 °F 74% 29.92 in 6.2 mi East 11.5 mph - N/A   Scattered Clouds
6:00 PM 84 °F - 76 °F 71% 29.95 in 11 mi East 11.5 mph - -   Partly Cloudy
6:00 PM 84.2 °F 94.1 °F 77.0 °F 79% 29.94 in 6.2 mi East 11.5 mph - N/A   Scattered Clouds
9:00 PM 83 °F - 76 °F 75% 29.99 in 12 mi East 11.5 mph - -   Scattered Clouds